PBO Station Position Time Series. Reference Frame : NAM14
Format Version,1.1.0
4-character ID,BKAP
Station name,BKAP_SCGN_CS2000
Begin Date, 2000-12-14
End Date, 2019-10-07
Release Date, 2019-10-08
Reference position, 35.2870473331 North Latitude, -116.0804251474 East Longitude, 252.03118 meters elevation,
Date, North (mm), East (mm), Vertical (mm), North Std. Deviation (mm), East Std. Deviation (mm),              Vertical Std. Deviation (mm), Quality,
2000-12-14,0.00, 0.00, 0.00, 2.02, 1.76, 7.94, repro,
2000-12-15,-0.25, -0.94, 2.34, 2.47, 2.28, 9.99, repro,
2000-12-29,0.19, -0.67, 1.26, 2.08, 1.78, 8.02, repro,
2000-12-30,-0.61, -1.04, 0.21, 2.09, 1.78, 8.24, repro,
2000-12-31,-0.14, -0.69, -2.96, 2.13, 1.85, 8.51, repro,
2001-01-01,0.25, -0.32, 0.65, 2.15, 1.84, 8.64, repro,
2001-01-02,0.89, -0.26, -8.13, 2.20, 1.86, 8.89, repro,
2001-01-03,0.14, -0.18, -5.74, 2.06, 1.85, 8.21, repro,
2001-01-04,-0.00, -0.80, -4.28, 2.05, 1.78, 8.04, repro,
2001-01-05,-0.08, -0.83, 5.33, 2.10, 1.81, 8.14, repro,
2001-01-06,-0.05, -1.44, 5.80, 2.13, 1.88, 8.48, repro,
2001-01-07,0.90, -0.85, 3.56, 2.03, 1.74, 7.95, repro,
2001-01-08,-0.57, -0.99, 8.84, 2.06, 1.85, 8.31, repro,
2001-01-09,-1.09, -1.20, 1.97, 2.02, 1.74, 7.88, repro,
2001-01-10,-0.74, -0.48, 5.45, 2.11, 1.77, 8.04, repro,
2001-01-11,-0.13, -0.84, -2.28, 2.10, 1.80, 8.35, repro,
2001-01-12,0.58, -0.81, -1.43, 2.11, 1.78, 8.16, repro,
2001-01-13,0.45, -0.27, -0.13, 2.09, 1.77, 8.11, repro,
2001-01-14,-0.39, -0.51, -1.84, 2.19, 1.87, 8.57, repro,
2001-01-15,-0.25, -1.07, 1.56, 2.33, 1.98, 8.92, repro,
2001-01-16,1.44, -1.01, -3.51, 2.23, 2.01, 8.89, repro,
2001-01-17,0.36, -1.33, -6.76, 2.13, 1.82, 8.48, repro,
2001-01-18,0.42, -0.33, -3.66, 2.18, 1.93, 8.50, repro,
2001-01-19,0.52, -0.48, -1.31, 2.10, 1.82, 8.14, repro,
2001-01-20,0.17, -0.91, -5.03, 2.01, 1.76, 7.98, repro,
2001-01-21,-0.52, -1.64, -3.92, 2.07, 1.79, 8.25, repro,
2001-01-22,-1.10, -0.70, -1.06, 2.02, 1.76, 8.01, repro,
2001-01-23,-2.07, -0.69, -0.53, 2.19, 1.90, 8.68, repro,
2001-01-24,-0.83, -0.95, 4.50, 2.20, 1.81, 8.50, repro,
2001-01-25,0.21, -0.63, -7.30, 2.16, 1.81, 8.26, repro,
2001-01-26,-0.84, -0.13, -5.22, 2.28, 1.87, 8.89, repro,
2001-01-27,-0.78, -1.28, 3.86, 2.25, 1.92, 9.01, repro,
2001-01-28,-0.74, -0.52, 2.69, 2.18, 1.86, 8.53, repro,
2001-01-29,0.31, -1.21, -3.44, 2.01, 1.72, 7.75, repro,
2001-01-30,0.57, -1.48, -7.48, 2.03, 1.74, 7.83, repro,
2001-01-31,0.95, -1.40, -6.58, 2.07, 1.81, 8.10, repro,
2001-02-01,0.14, -1.55, -6.83, 2.03, 1.73, 7.86, repro,
2001-02-02,0.12, -0.97, -3.97, 2.06, 1.74, 7.90, repro,
2001-02-03,-0.43, -0.73, -5.23, 2.03, 1.73, 7.82, repro,
2001-02-04,0.22, -1.08, -2.86, 2.05, 1.77, 7.92, repro,
2001-02-05,0.18, -1.47, -6.07, 2.10, 1.80, 8.02, repro,
2001-02-06,-1.21, -1.21, -5.38, 2.05, 1.76, 7.94, repro,
2001-02-07,-2.15, 0.13, 7.45, 2.09, 1.76, 8.09, repro,
2001-02-08,-0.80, -1.74, 1.19, 2.14, 1.93, 8.46, repro,
2001-02-09,-0.44, -1.14, -5.52, 2.04, 1.78, 7.91, repro,
2001-02-10,-0.10, -0.46, 4.22, 2.08, 1.80, 7.95, repro,
2001-02-11,2.30, 0.83, 9.78, 2.12, 1.83, 8.04, repro,
2001-02-12,-2.32, -1.76, 4.60, 2.13, 1.81, 8.09, repro,
2001-02-13,0.76, -0.65, 0.06, 2.04, 1.71, 7.78, repro,
2001-02-14,-0.42, -0.49, 0.83, 2.03, 1.72, 7.78, repro,
2001-02-15,-0.13, -0.51, -6.44, 2.05, 1.78, 7.93, repro,
2001-02-16,0.85, -0.71, -9.40, 2.09, 1.76, 8.04, repro,
2001-02-17,-0.23, -0.26, -4.33, 2.17, 1.87, 8.18, repro,
2001-02-18,0.68, -1.93, -2.35, 2.07, 1.77, 7.86, repro,
2001-02-19,-1.78, -1.20, 4.30, 2.31, 1.86, 8.52, repro,
2001-02-20,-1.34, 0.54, 7.25, 2.14, 1.87, 8.27, repro,
2001-02-21,0.48, -0.63, 4.18, 2.14, 1.85, 8.16, repro,
2001-02-22,0.21, -2.21, 1.67, 2.01, 1.74, 7.80, repro,
2001-02-23,-1.37, -0.67, 13.64, 2.07, 1.81, 7.92, repro,
2001-02-24,-0.45, -1.66, 0.86, 2.25, 1.96, 8.49, repro,
2001-02-25,-1.19, -1.55, 1.09, 2.11, 1.85, 8.15, repro,
2001-02-26,-1.79, -2.05, -2.84, 2.26, 2.04, 8.66, repro,
2001-02-27,-0.23, -2.69, 1.27, 2.09, 1.77, 8.15, repro,
2001-02-28,-0.31, -1.15, 0.25, 2.17, 1.80, 8.41, repro,
2001-03-01,-0.75, -2.73, 9.55, 2.52, 2.20, 9.75, repro,
2001-03-02,-0.05, -2.40, 0.23, 2.50, 2.17, 9.52, repro,
2001-03-03,1.49, -2.45, -2.97, 2.11, 1.85, 8.20, repro,
2001-03-04,-1.12, -0.34, 6.29, 2.15, 1.81, 8.21, repro,
2001-03-05,-1.24, -2.62, -2.62, 2.16, 1.86, 8.26, repro,
2001-03-06,-0.78, -1.69, -7.13, 2.04, 1.77, 7.90, repro,
2001-03-07,-0.80, -0.69, -1.62, 2.03, 1.74, 7.88, repro,
2001-03-08,-1.33, -1.78, 5.69, 2.14, 1.81, 8.24, repro,
2001-03-09,-0.53, -0.90, -0.50, 2.14, 1.83, 8.38, repro,
2001-03-10,0.62, -0.23, -5.42, 2.24, 1.94, 8.58, repro,
2001-03-11,-0.12, -1.28, 5.95, 2.28, 1.95, 8.50, repro,
2001-03-12,-0.03, -1.78, 2.24, 2.20, 1.92, 8.38, repro,
2001-03-13,-0.37, -1.00, 1.45, 2.23, 1.92, 8.55, repro,
2001-03-14,-0.82, -1.43, 3.97, 2.02, 1.80, 7.94, repro,
2001-03-15,-1.09, -0.83, 3.24, 2.04, 1.76, 7.88, repro,
2001-03-16,-0.71, -1.67, 6.03, 2.08, 1.84, 8.05, repro,
2001-03-17,-0.75, -2.22, 3.37, 2.12, 1.93, 8.09, repro,
2001-03-18,-0.63, -1.04, -5.91, 2.03, 1.78, 7.87, repro,
2001-03-19,-1.50, -1.50, -3.76, 2.03, 1.77, 7.84, repro,
2001-03-20,-0.49, -0.92, -1.73, 2.08, 1.84, 7.99, repro,
2001-03-21,-1.49, 0.08, -1.24, 2.03, 1.77, 7.86, repro,
2001-03-22,-1.07, -1.27, 2.18, 2.04, 1.76, 7.89, repro,
2001-03-23,0.07, -0.60, 5.19, 2.08, 1.85, 8.15, repro,
2001-03-24,-1.76, -1.23, 0.14, 2.05, 1.77, 7.94, repro,
2001-03-25,-0.96, -2.63, -2.98, 2.06, 1.78, 7.96, repro,
2001-03-26,-1.20, -1.20, -3.67, 2.10, 1.79, 8.02, repro,
2001-03-27,-0.31, -1.72, 3.95, 2.23, 1.91, 8.51, repro,
2001-03-28,0.24, -2.05, 7.60, 2.17, 1.82, 8.39, repro,
2001-03-29,-0.46, -0.32, -1.76, 2.04, 1.79, 7.95, repro,
2001-03-30,-2.21, -0.66, -1.63, 2.04, 1.76, 7.84, repro,
2001-03-31,-1.32, -0.62, -0.62, 2.11, 1.89, 8.30, repro,
2001-04-01,0.11, 0.05, 9.81, 2.03, 1.76, 7.84, repro,
2001-04-02,-0.37, 3.72, 24.79, 2.11, 1.87, 8.29, repro,
2001-04-03,1.94, -0.82, 23.68, 2.10, 1.85, 8.12, repro,
2001-04-04,-0.93, -1.45, 3.67, 2.06, 1.83, 8.00, repro,
2001-04-05,0.34, -0.54, 1.24, 2.10, 1.86, 8.04, repro,
2001-04-06,-1.67, -0.40, 9.21, 2.05, 1.81, 8.02, repro,
2001-04-07,-3.51, -1.57, 23.19, 2.06, 1.82, 8.06, repro,
2001-04-08,1.37, -0.06, 3.15, 2.07, 1.84, 8.12, repro,
2001-04-09,-0.25, -0.71, 6.68, 2.05, 1.81, 7.98, repro,
2001-04-10,-2.14, -1.47, 5.10, 2.07, 1.82, 7.97, repro,
2001-04-11,-1.73, -0.99, 8.23, 2.11, 1.86, 8.22, repro,
2001-04-12,-0.22, 0.47, 2.76, 2.10, 1.89, 8.21, repro,
2001-04-13,-0.37, -1.71, 2.88, 2.05, 1.83, 8.04, repro,
2001-04-14,-1.89, 1.29, 7.40, 2.11, 1.88, 8.12, repro,
2001-04-15,-0.65, -1.52, 4.33, 2.09, 1.89, 8.13, repro,
2001-04-16,0.10, -1.86, 0.41, 2.15, 1.97, 8.35, repro,
2001-04-17,-0.32, -1.92, -1.79, 2.21, 1.91, 8.66, repro,
2001-04-23,1.42, 0.70, 7.54, 3.65, 3.48, 14.83, repro,
2001-04-24,0.63, -1.81, 7.67, 2.43, 2.07, 9.39, repro,
2001-04-25,-0.15, -2.64, 19.88, 2.22, 1.90, 8.70, repro,
2001-04-26,-1.14, -1.30, 11.16, 2.04, 1.79, 7.99, repro,
2001-04-27,-0.83, -0.50, 7.39, 2.05, 1.78, 8.00, repro,
2001-04-28,0.56, -1.03, 8.85, 1.99, 1.71, 7.67, repro,
2001-04-29,-0.27, -2.39, 13.41, 2.06, 1.80, 7.94, repro,
2001-04-30,-0.10, -2.03, 10.91, 2.10, 1.91, 8.28, repro,
2001-05-01,-0.34, -2.51, 11.39, 2.06, 1.82, 7.90, repro,
2001-05-02,-2.33, -1.36, 15.63, 1.99, 1.70, 7.65, repro,
2001-05-03,-2.06, -1.25, 1.86, 1.97, 1.70, 7.63, repro,
2001-05-04,-0.34, -0.87, 6.90, 1.98, 1.70, 7.63, repro,
2001-05-05,0.05, -0.95, 8.97, 1.98, 1.70, 7.63, repro,
2001-05-06,-0.36, -0.48, 7.92, 1.97, 1.69, 7.62, repro,
2001-05-07,-1.37, -1.05, 9.07, 2.01, 1.74, 7.66, repro,
2001-05-08,-0.06, -0.26, 8.46, 2.01, 1.74, 7.67, repro,
2001-05-09,0.26, 0.63, 7.95, 1.98, 1.69, 7.59, repro,
2001-05-10,0.41, -1.37, 3.89, 1.98, 1.70, 7.65, repro,
2001-05-11,-1.62, -0.66, 8.35, 2.02, 1.73, 7.79, repro,
2001-05-12,-1.33, -0.75, 9.59, 2.07, 1.82, 8.00, repro,
2001-05-13,-2.08, -0.67, 9.01, 2.09, 1.84, 8.07, repro,
2001-05-14,-0.31, -0.49, 8.13, 1.97, 1.70, 7.68, repro,
2001-05-15,-1.70, -0.17, 12.27, 2.00, 1.70, 7.71, repro,
2001-05-16,-1.06, 0.02, 3.36, 4.16, 3.80, 16.13, repro,
2001-05-17,0.65, -0.27, 17.07, 3.04, 2.84, 12.83, repro,
2001-05-18,-5.60, -4.09, 24.52, 5.77, 4.73, 20.36, repro,
2001-05-19,-1.40, -1.74, 13.89, 1.98, 1.70, 7.71, repro,
2001-05-20,-0.92, -0.22, 8.06, 2.02, 1.71, 7.74, repro,
2001-05-21,-1.09, -0.93, 13.91, 2.04, 1.73, 7.80, repro,
2001-05-22,-0.49, -1.14, 15.88, 2.02, 1.79, 8.03, repro,
2001-05-23,-0.32, -0.78, 13.85, 2.03, 1.72, 7.76, repro,
2001-05-24,-0.87, 0.04, 11.10, 2.07, 1.78, 8.08, repro,
2001-05-25,-2.13, -1.39, 17.51, 2.00, 1.71, 7.78, repro,
2001-05-26,-1.03, 0.20, 17.50, 1.98, 1.69, 7.64, repro,
2001-05-27,-2.03, 0.34, 22.87, 2.03, 1.72, 7.89, repro,
2001-05-28,-2.00, -1.17, 17.51, 2.03, 1.76, 7.80, repro,
2001-05-29,-2.08, -2.24, 13.03, 2.05, 1.74, 7.97, repro,
2001-05-30,-1.37, -1.40, 16.65, 2.05, 1.73, 7.93, repro,
2001-05-31,-1.06, -1.10, 18.00, 2.05, 1.74, 7.96, repro,
2001-06-01,-1.53, -0.60, 21.11, 1.99, 1.71, 7.74, repro,
2001-06-02,-2.02, 0.14, 12.94, 2.05, 1.76, 7.89, repro,
2001-06-03,-0.16, 0.12, 14.69, 2.08, 1.82, 8.11, repro,
2001-06-04,-1.35, -1.95, 19.11, 2.05, 1.78, 7.96, repro,
2001-06-05,-2.71, -1.67, 19.53, 2.00, 1.76, 7.86, repro,
2001-06-06,-1.87, -0.74, 12.58, 2.04, 1.72, 7.90, repro,
2001-06-07,-1.66, -2.11, 13.96, 2.06, 1.81, 8.03, repro,
2001-06-08,-1.81, -0.69, 14.27, 2.17, 1.80, 8.32, repro,
2001-06-09,-1.19, -0.81, 13.99, 2.08, 1.78, 8.12, repro,
2001-06-10,-0.44, -2.68, 16.31, 2.02, 1.72, 7.80, repro,
2001-06-11,-1.09, -0.03, 19.41, 2.02, 1.72, 7.86, repro,
2001-06-12,-1.88, -1.86, 17.67, 2.11, 1.77, 8.09, repro,
2001-06-13,-2.86, -1.85, 14.83, 2.04, 1.73, 7.86, repro,
2001-06-14,-1.24, -0.94, 12.06, 2.06, 1.72, 7.87, repro,
2001-06-15,-2.29, -1.83, 12.14, 2.47, 2.11, 9.43, repro,
2001-06-16,-1.06, 0.06, 9.84, 2.10, 1.84, 8.35, repro,
2001-06-17,-2.66, -0.24, 9.06, 2.26, 1.86, 8.59, repro,
2001-06-18,-1.59, -1.10, 12.56, 2.13, 1.80, 8.27, repro,
2001-06-19,-1.32, -0.77, 13.04, 2.15, 1.88, 8.38, repro,
2001-06-20,2.38, 1.77, 3.30, 4.68, 3.75, 18.12, repro,
2001-06-21,-1.44, -0.56, 13.95, 2.09, 1.81, 8.16, repro,
2001-06-22,-2.13, -1.91, 12.36, 1.99, 1.71, 7.67, repro,
2001-06-23,-2.74, -0.09, 10.12, 2.12, 1.83, 8.23, repro,
2001-06-24,-1.92, -1.26, 19.75, 2.02, 1.76, 7.74, repro,
2001-06-25,-1.94, -0.21, 10.27, 1.96, 1.67, 7.50, repro,
2001-06-26,-2.40, -2.79, 27.07, 2.08, 1.88, 8.21, repro,
2001-06-27,-1.76, -1.14, 6.17, 2.00, 1.74, 7.76, repro,
2001-06-28,-1.63, -0.99, 14.80, 1.98, 1.70, 7.62, repro,
2001-06-29,-1.77, 0.44, 10.69, 2.01, 1.74, 7.77, repro,
2001-06-30,-2.30, -0.97, 11.84, 2.00, 1.75, 7.68, repro,
2001-07-01,-1.18, -1.91, 12.97, 1.96, 1.68, 7.54, repro,
2001-07-02,-1.81, -0.54, 10.53, 1.96, 1.69, 7.55, repro,
2001-07-03,-1.81, -0.68, 12.03, 2.01, 1.75, 7.83, repro,
2001-07-04,-1.68, 0.11, 5.55, 1.99, 1.71, 7.66, repro,
2001-07-05,-0.24, -0.88, 8.80, 1.99, 1.72, 7.68, repro,
2001-07-06,-2.35, -2.64, 17.13, 1.97, 1.70, 7.58, repro,
2001-07-07,-2.58, -2.00, 1.11, 2.22, 2.01, 9.08, repro,
2001-07-08,-0.42, -2.44, 9.41, 2.05, 1.86, 8.21, repro,
2001-07-09,-0.62, 1.82, 7.78, 3.46, 2.93, 13.99, repro,
2001-07-10,-1.23, -1.15, 1.32, 2.12, 1.84, 8.27, repro,
2001-07-11,-1.50, -0.92, 4.42, 2.01, 1.74, 7.71, repro,
2001-07-12,-1.68, -1.43, 9.21, 2.01, 1.70, 7.78, repro,
2001-07-13,-0.96, -2.43, 7.12, 2.12, 1.83, 8.10, repro,
2001-07-14,-1.22, -2.50, 5.15, 2.18, 1.91, 8.53, repro,
2001-07-15,-1.06, 0.86, 18.47, 2.05, 1.73, 7.96, repro,
2001-07-16,-1.58, 0.71, 11.93, 1.98, 1.70, 7.71, repro,
2001-07-17,-2.87, -1.93, 12.84, 1.95, 1.68, 7.54, repro,
2001-07-18,-1.39, -2.76, 8.13, 2.27, 2.01, 8.72, repro,
2001-07-19,-2.98, -1.27, 8.84, 2.00, 1.74, 7.70, repro,
2001-07-20,-1.99, -0.74, 7.02, 2.06, 1.75, 7.92, repro,
2001-07-21,-2.48, -0.42, 7.72, 1.98, 1.70, 7.61, repro,
2001-07-22,-2.16, -1.02, 9.31, 2.03, 1.71, 7.72, repro,
2001-07-23,-2.26, 0.04, 12.73, 2.01, 1.73, 7.72, repro,
2001-07-24,-2.61, -1.61, 14.22, 2.04, 1.72, 7.78, repro,
2001-07-25,-1.38, -1.39, 12.66, 2.03, 1.72, 7.77, repro,
2001-07-26,-0.77, -1.13, 4.48, 2.07, 1.75, 7.98, repro,
2001-07-27,-2.60, -1.00, 8.31, 2.05, 1.82, 7.96, repro,
2001-07-28,-1.76, -1.83, 1.42, 2.06, 1.80, 7.89, repro,
2001-07-29,-2.37, -0.52, 10.06, 2.06, 1.80, 7.94, repro,
2001-07-30,-2.62, -0.89, 25.90, 2.18, 1.84, 8.32, repro,
2001-07-31,-1.95, -1.31, 4.32, 2.30, 1.93, 8.54, repro,
2001-08-01,-2.81, -1.85, 5.63, 2.04, 1.75, 7.80, repro,
2001-08-02,-1.75, -1.23, 4.53, 2.02, 1.74, 7.74, repro,
2001-08-03,-0.65, -0.11, 13.03, 2.06, 1.75, 7.86, repro,
2001-08-04,-1.17, -1.23, 15.91, 2.14, 1.82, 8.14, repro,
2001-08-05,-1.87, -1.89, 8.93, 2.14, 1.82, 8.10, repro,
2001-08-06,-2.05, -1.38, 8.16, 2.08, 1.79, 7.94, repro,
2001-08-07,-0.09, -1.17, 3.78, 2.14, 1.82, 8.07, repro,
2001-08-08,-2.09, -1.21, 7.23, 2.23, 1.97, 8.35, repro,
2001-08-09,-0.55, -1.45, 12.31, 2.20, 1.87, 8.36, repro,
2001-08-10,-1.80, -2.10, 15.00, 2.23, 1.91, 8.44, repro,
2001-08-11,-2.51, 0.39, 7.26, 2.11, 1.77, 8.05, repro,
2001-08-12,-0.70, -1.45, 1.63, 2.04, 1.69, 7.75, repro,
2001-08-13,-0.93, -0.55, 5.17, 2.72, 2.36, 11.06, repro,
2001-08-14,0.78, -1.43, 16.62, 2.25, 2.00, 8.48, repro,
2001-08-15,-0.18, -1.24, 21.38, 2.11, 1.77, 8.06, repro,
2001-08-16,-3.16, -0.11, 9.96, 2.17, 1.78, 8.23, repro,
2001-08-17,-1.73, 3.70, 15.58, 2.12, 1.74, 7.96, repro,
2001-08-18,-4.16, -1.00, 5.03, 2.27, 1.93, 8.46, repro,
2001-08-19,-0.85, -0.35, 9.71, 2.13, 1.80, 7.98, repro,
2001-08-20,0.79, -1.75, 10.17, 2.26, 1.85, 8.38, repro,
2001-08-21,-2.34, -1.43, 7.13, 2.24, 1.88, 8.35, repro,
2001-08-22,-2.20, -1.12, 10.10, 2.17, 1.80, 8.10, repro,
2001-08-23,-1.32, -1.41, 5.79, 2.11, 1.74, 7.96, repro,
2001-08-24,-0.82, -0.68, 6.92, 2.22, 1.89, 8.25, repro,
2001-08-25,-1.00, -0.13, 15.79, 2.09, 1.76, 8.06, repro,
2001-08-26,-1.41, -0.62, 2.99, 2.34, 1.93, 8.75, repro,
2001-08-27,-0.97, -0.33, 4.23, 2.16, 1.77, 8.15, repro,
2001-08-28,-2.04, -1.63, 15.05, 2.40, 2.02, 8.89, repro,
2001-08-29,-3.80, -0.37, 10.56, 2.28, 1.86, 8.38, repro,
2001-08-30,-4.19, 1.73, 6.99, 2.26, 1.84, 8.45, repro,
2001-08-31,-1.36, -1.31, 17.04, 2.48, 2.01, 9.08, repro,
2001-09-01,-1.96, -1.37, 17.62, 2.08, 1.75, 7.92, repro,
2001-09-02,-0.95, -0.12, 16.91, 2.16, 1.85, 8.12, repro,
2001-09-03,-1.00, -1.95, 7.91, 2.19, 1.80, 8.29, repro,
2001-09-04,-0.49, -1.22, 6.95, 2.18, 1.85, 8.39, repro,
2001-09-05,1.95, 1.44, 8.40, 2.35, 2.17, 9.15, repro,
2001-09-06,-2.09, 1.40, 18.13, 2.15, 1.81, 8.26, repro,
2001-09-07,-2.51, 0.15, 15.05, 2.20, 1.94, 8.89, repro,
2001-09-08,-2.00, -0.61, 12.13, 2.03, 1.72, 7.76, repro,
2001-09-09,-1.85, 0.22, 9.93, 2.08, 1.79, 7.98, repro,
2001-09-10,-2.30, 0.39, 9.52, 1.97, 1.65, 7.58, repro,
2001-09-11,-3.36, -1.38, 12.23, 2.05, 1.80, 7.93, repro,
2001-09-12,-2.50, 0.77, 22.27, 2.13, 1.97, 8.29, repro,
2001-09-13,-2.66, -1.26, 15.67, 2.05, 1.74, 7.83, repro,
2001-09-14,-2.59, -0.08, 13.84, 2.02, 1.69, 7.83, repro,
2001-09-15,-0.67, 0.71, 18.85, 2.00, 1.71, 7.65, repro,
2001-09-16,-2.25, -1.52, 18.58, 2.01, 1.71, 7.69, repro,
2001-09-17,-1.25, -0.18, 21.32, 2.04, 1.79, 7.87, repro,
2001-09-18,-2.91, -1.07, 14.95, 2.05, 1.77, 7.83, repro,
2001-09-19,-1.89, -1.06, 12.79, 2.09, 1.82, 7.93, repro,
2001-09-20,-1.79, -0.49, 17.87, 2.13, 1.86, 8.28, repro,
2001-09-21,-1.02, -0.36, 10.16, 2.00, 1.70, 7.72, repro,
2001-09-22,-1.73, -0.20, 13.80, 1.98, 1.67, 7.63, repro,
2001-09-23,-3.19, -0.78, 9.38, 2.03, 1.72, 7.79, repro,
2001-09-24,-1.55, -0.62, 9.98, 2.02, 1.67, 7.70, repro,
2001-09-25,-2.34, -1.15, 15.05, 2.09, 1.80, 8.02, repro,
2001-09-26,-2.13, -0.77, 18.04, 1.99, 1.70, 7.63, repro,
2001-09-27,-1.42, -0.66, 18.27, 2.04, 1.76, 7.81, repro,
2001-09-28,-2.30, -0.81, 14.25, 2.02, 1.73, 7.81, repro,
2001-09-29,-1.96, -1.41, 18.63, 2.23, 1.84, 8.61, repro,
2001-09-30,-1.98, -0.37, 13.22, 2.00, 1.69, 7.71, repro,
2001-10-01,-2.89, -0.31, 14.47, 2.04, 1.73, 7.78, repro,
2001-10-02,-1.72, -0.48, 14.80, 1.99, 1.68, 7.58, repro,
2001-10-03,-2.35, -1.16, 14.22, 2.13, 1.78, 8.05, repro,
2001-10-04,-3.35, -1.84, 17.45, 2.30, 1.81, 8.54, repro,
2001-10-05,-3.32, -0.59, 16.83, 2.09, 1.70, 7.91, repro,
2001-10-06,-2.85, 0.43, 19.16, 2.14, 1.77, 8.02, repro,
2001-10-07,-1.23, -0.53, 18.31, 2.23, 1.86, 8.20, repro,
2001-10-08,-3.13, -0.25, 17.09, 2.11, 1.73, 8.03, repro,
2001-10-09,-1.25, -1.51, 15.33, 2.05, 1.69, 7.87, repro,
2001-10-10,-2.32, -0.29, 8.35, 2.09, 1.72, 7.97, repro,
2001-10-11,-1.10, -0.51, 14.44, 2.00, 1.71, 7.75, repro,
2001-10-12,-1.66, -2.70, 17.94, 2.15, 1.77, 8.13, repro,
2001-10-13,-2.65, -0.72, 18.74, 2.08, 1.77, 7.92, repro,
2001-10-14,-2.03, -0.65, 12.34, 2.13, 1.81, 8.04, repro,
2001-10-15,-1.82, -1.05, 12.72, 2.16, 1.79, 8.07, repro,
2001-10-16,-1.88, -0.20, 4.55, 2.17, 1.82, 8.12, repro,
2001-10-17,-2.02, -0.64, 13.05, 2.27, 1.91, 8.40, repro,
2001-10-18,-1.34, -1.68, 13.55, 2.14, 1.73, 8.19, repro,
2001-10-19,-2.01, -0.17, 12.04, 2.37, 1.93, 8.73, repro,
2001-10-20,-1.54, 0.26, 15.98, 2.22, 1.80, 8.26, repro,
2001-10-21,-1.40, -0.59, 20.07, 2.22, 1.89, 8.41, repro,
2001-10-22,-3.34, -0.64, 15.63, 2.17, 1.89, 8.14, repro,
2001-10-23,-2.96, -1.18, 19.90, 2.21, 1.82, 8.26, repro,
2001-10-24,-1.15, 0.09, 17.64, 2.37, 1.87, 8.83, repro,
2001-10-25,-1.59, -0.32, 12.20, 2.65, 2.17, 9.64, repro,
2001-10-26,-2.48, -0.95, 11.64, 2.28, 1.90, 8.56, repro,
2001-10-27,-1.46, -0.05, 12.04, 2.11, 1.76, 8.02, repro,
2001-10-28,-1.23, -1.33, 13.69, 2.26, 2.00, 8.60, repro,
2001-10-29,-3.06, -1.63, 11.22, 2.14, 1.80, 8.07, repro,
2001-10-30,-2.22, 0.97, 2.72, 2.10, 1.80, 7.97, repro,
2001-10-31,-0.57, 0.32, 13.24, 2.16, 1.81, 8.20, repro,
2001-11-01,-2.80, -0.23, 21.00, 2.09, 1.76, 7.94, repro,
2001-11-02,-1.88, -1.00, 17.33, 2.10, 1.82, 7.88, repro,
2001-11-03,-1.56, -0.33, 13.98, 2.25, 1.93, 8.39, repro,
2001-11-04,-3.18, -0.14, 8.01, 2.21, 1.88, 8.30, repro,
2001-11-05,-2.42, 0.14, 17.06, 2.42, 2.06, 9.19, repro,
2001-11-06,-2.69, -1.12, 12.73, 2.30, 1.95, 8.67, repro,
2001-11-07,-3.64, -1.88, 10.12, 2.16, 1.79, 8.13, repro,
2001-11-08,-2.77, -1.00, 12.02, 2.25, 1.90, 8.60, repro,
2001-11-09,-1.72, -0.58, 10.29, 2.43, 2.17, 9.88, repro,
2001-11-10,-1.92, -0.51, 9.51, 2.94, 2.33, 10.70, repro,
2001-11-11,-3.93, 0.52, 9.93, 2.22, 1.86, 8.42, repro,
2001-11-12,-3.23, -2.37, 10.51, 2.27, 1.87, 8.50, repro,
2001-11-13,-3.42, -2.22, 16.17, 2.38, 2.00, 9.26, repro,
2001-11-14,-1.03, 0.04, 15.41, 2.22, 1.81, 8.49, repro,
2001-11-15,-2.65, -0.51, 14.07, 2.32, 2.05, 9.08, repro,
2001-11-16,-2.60, 0.08, 9.60, 2.24, 1.95, 8.54, repro,
2001-11-17,-2.48, -0.10, 6.84, 2.40, 2.00, 9.32, repro,
2001-11-18,-2.42, -0.41, 2.50, 2.17, 1.94, 8.56, repro,
2001-11-19,-2.52, -1.71, 3.52, 2.20, 1.89, 8.76, repro,
2001-11-20,-3.15, 0.75, 13.72, 2.37, 2.04, 9.34, repro,
2001-11-21,-1.66, 1.22, 12.03, 3.02, 2.62, 12.55, repro,
2001-11-22,-1.84, 1.85, 25.06, 2.30, 1.94, 8.88, repro,
2001-11-23,-1.73, -2.88, 16.57, 2.50, 2.18, 9.86, repro,
2001-11-24,-3.82, -1.18, 21.16, 2.49, 2.11, 9.82, repro,
2001-11-25,-1.89, -3.96, 8.03, 2.34, 2.02, 9.34, repro,
2001-11-26,-2.57, 0.03, 5.63, 2.23, 1.87, 8.57, repro,
2001-11-27,-3.52, -1.30, 1.37, 2.26, 1.91, 9.04, repro,
2001-11-28,-1.32, -0.87, 9.83, 2.21, 1.87, 8.78, repro,
2001-11-29,-2.84, -1.56, 18.67, 2.11, 1.72, 8.05, repro,
2001-11-30,-1.55, -0.77, 16.07, 2.10, 1.84, 8.31, repro,
2001-12-01,-4.07, -0.89, 13.22, 2.08, 1.79, 8.11, repro,
2001-12-02,-3.68, 1.47, 8.63, 2.22, 1.90, 8.59, repro,
2001-12-03,-5.95, -1.61, 8.25, 2.14, 1.81, 8.32, repro,
2001-12-04,-3.07, -0.71, 8.52, 2.19, 1.87, 8.57, repro,
2001-12-05,-2.02, -1.37, 4.35, 2.13, 1.79, 8.15, repro,
2001-12-06,-2.81, -1.70, 6.10, 2.21, 1.88, 8.61, repro,
2001-12-07,-2.44, -1.10, 3.81, 2.11, 1.83, 8.15, repro,
2001-12-08,-1.96, -1.32, 0.74, 2.07, 1.80, 8.02, repro,
2001-12-09,-2.87, -0.01, 10.33, 2.08, 1.80, 8.11, repro,
2001-12-10,-1.44, -0.58, 14.60, 2.16, 1.89, 8.33, repro,
2001-12-11,-2.59, -1.85, 8.63, 2.24, 1.83, 8.55, repro,
2001-12-12,-2.25, -0.69, 5.05, 2.28, 1.81, 8.61, repro,
2001-12-13,-2.92, -1.10, 5.15, 2.19, 1.79, 8.26, repro,
2001-12-14,-3.63, -1.80, 9.08, 2.13, 1.87, 8.24, repro,
2001-12-15,-2.90, -2.48, 8.46, 2.10, 1.81, 8.12, repro,
2001-12-16,-2.55, -0.33, -0.11, 2.12, 1.85, 8.25, repro,
2001-12-17,-2.50, -1.10, 1.24, 2.11, 1.86, 8.17, repro,
2001-12-18,-1.86, -1.75, 6.73, 2.15, 1.80, 8.18, repro,
2001-12-19,-2.43, -0.53, 1.61, 2.11, 1.78, 8.04, repro,
2001-12-20,-2.90, -1.22, 4.06, 2.13, 1.78, 8.05, repro,
2001-12-21,-3.03, -1.47, 2.55, 2.05, 1.77, 7.95, repro,
2001-12-22,-2.26, -1.90, 1.26, 2.15, 1.89, 8.41, repro,
2001-12-23,-2.70, -1.55, 1.43, 2.07, 1.79, 7.85, repro,
2001-12-24,-2.00, -0.99, -11.25, 2.22, 1.83, 8.40, repro,
2001-12-25,-2.13, -0.39, -2.48, 2.11, 1.81, 8.15, repro,
2001-12-26,-2.76, -1.25, 4.10, 2.04, 1.75, 7.77, repro,
2001-12-27,-2.85, -0.23, 7.79, 2.17, 1.83, 8.31, repro,
2001-12-28,-2.07, -1.07, 7.11, 2.05, 1.75, 7.74, repro,
2001-12-29,-2.28, -1.23, 11.61, 2.04, 1.73, 7.71, repro,
2001-12-30,-3.35, -2.05, 10.89, 2.06, 1.79, 7.87, repro,
2001-12-31,-3.03, -0.64, 3.86, 2.20, 1.88, 8.49, repro,
2002-01-01,-2.95, -1.41, 5.26, 2.13, 1.86, 8.29, repro,
2002-01-02,-2.08, -2.00, 7.75, 2.18, 1.90, 8.46, repro,
2002-01-03,-2.16, -0.20, 4.86, 2.18, 1.88, 8.33, repro,
2002-01-04,0.42, -1.98, 6.24, 2.18, 1.87, 8.34, repro,
2002-01-05,-1.96, -1.83, 9.34, 2.13, 1.84, 8.31, repro,
2002-01-06,-1.67, -2.64, 6.38, 2.12, 1.79, 8.04, repro,
2002-01-07,-2.76, -1.80, 0.56, 2.18, 1.92, 8.61, repro,
2002-01-08,-1.83, -1.55, 8.77, 2.29, 1.98, 9.02, repro,
2002-01-09,-2.30, -1.18, 11.56, 2.09, 1.78, 8.04, repro,
2002-01-10,-1.53, -1.09, 3.91, 2.15, 1.91, 8.37, repro,
2002-01-11,-2.49, -1.46, 6.60, 2.17, 1.90, 8.74, repro,
2002-01-12,-2.70, -0.74, 1.74, 2.17, 1.88, 8.28, repro,
2002-01-13,-1.88, -0.25, 8.34, 2.44, 2.03, 9.42, repro,
2002-01-14,-2.36, -1.19, 10.42, 2.24, 1.90, 8.63, repro,
2002-01-15,-2.43, -0.81, 5.22, 2.10, 1.86, 8.16, repro,
2002-01-16,-3.40, -1.94, 4.66, 2.21, 1.95, 8.80, repro,
2002-01-17,-2.74, -0.86, 4.50, 2.14, 1.93, 8.41, repro,
2002-01-18,-2.46, -2.08, 7.57, 2.04, 1.79, 7.79, repro,
2002-01-19,-2.74, -1.96, 4.75, 2.02, 1.78, 7.65, repro,
2002-01-20,-3.02, -2.06, 12.85, 2.03, 1.75, 7.70, repro,
2002-01-21,-2.02, -2.21, 8.18, 2.04, 1.79, 7.77, repro,
2002-01-22,-3.27, -1.31, 8.85, 2.26, 2.03, 8.86, repro,
2002-01-23,-3.76, -1.36, 7.33, 2.03, 1.80, 7.73, repro,
2002-01-24,-2.21, -2.09, 1.51, 2.03, 1.79, 7.69, repro,
2002-01-25,-2.62, -1.40, 5.66, 2.26, 2.07, 8.89, repro,
2002-01-26,-3.20, -1.41, 10.93, 2.00, 1.74, 7.60, repro,
2002-01-27,-3.31, -1.47, 6.99, 2.04, 1.75, 7.75, repro,
2002-01-28,-3.23, -1.59, 5.32, 2.02, 1.78, 7.68, repro,
2002-01-29,-1.14, -0.50, 6.52, 2.00, 1.79, 7.57, repro,
2002-01-30,-4.11, -3.46, 4.07, 2.20, 1.90, 8.24, repro,
2002-01-31,-2.43, -1.64, 1.23, 2.16, 1.92, 8.43, repro,
2002-02-01,-2.10, -2.02, -0.45, 2.10, 1.89, 7.89, repro,
2002-02-02,-2.45, -2.70, 5.21, 2.32, 1.99, 8.92, repro,
2002-02-03,-2.01, -2.75, 7.53, 2.11, 1.78, 8.04, repro,
2002-02-04,-2.06, -2.78, 5.43, 2.27, 1.96, 8.63, repro,
2002-02-05,-2.41, -2.08, 10.06, 2.21, 2.05, 8.72, repro,
2002-02-06,-1.31, -1.59, 10.86, 2.12, 1.91, 8.19, repro,
2002-02-07,-1.53, -0.89, 12.69, 2.34, 2.01, 8.97, repro,
2002-02-08,-3.61, -2.11, 10.85, 2.22, 1.89, 8.56, repro,
2002-02-09,-3.05, -1.81, 5.06, 2.07, 1.79, 7.99, repro,
2002-02-10,-2.36, -2.00, -1.20, 2.29, 2.16, 8.88, repro,
2002-02-11,-2.87, -1.39, -4.91, 2.05, 1.77, 7.91, repro,
2002-02-12,-2.27, -1.21, 10.11, 2.16, 1.93, 8.43, repro,
2002-02-13,-2.76, -1.34, 9.55, 2.08, 1.84, 8.17, repro,
2002-02-14,-2.48, -1.30, 8.44, 2.38, 2.24, 9.24, repro,
2002-02-15,-2.62, -0.91, 15.61, 2.35, 2.25, 9.17, repro,
2002-02-16,-3.12, -1.26, 9.20, 2.22, 1.88, 8.58, repro,
2002-02-17,-4.79, 0.53, 11.63, 2.02, 1.88, 8.00, repro,
2002-02-18,-3.25, -0.80, 12.47, 2.26, 2.08, 9.14, repro,
2002-02-19,-3.29, -1.44, 13.61, 2.32, 2.06, 9.05, repro,
2002-02-20,-2.19, -1.60, 17.81, 2.24, 1.97, 8.64, repro,
2002-02-21,-3.46, -2.19, 13.55, 2.65, 2.14, 9.89, repro,
2002-02-25,0.69, -3.07, 26.95, 5.38, 5.43, 22.37, repro,